x

Halibut Bank (46146) Wave Buoy

4:00 - Wed 25th May 2016 All times are PDT. -7 hours from GMT.

  • Sig Wave height 0.7ft
  • Peak Period 3s
  • Wind
    9mph
  • Sea Temp 63°f
  • Sea Pressure 1020.1mb
  • Halibut Bank
  • Halibut Bank

More Historic Weather Station data

Upgrade to MSW Pro to gain access to the past 30 days of data for over 8000 Wavebouys and Weather Stations around the globe.

Join Pro

Comparision Forecast

View Surf forecast
   
Qua 05/25 4:00 0.7ft 3s 9
mph
1020.1mb 63f
3:00 0.7ft 4s 2 4 mph 1020.2mb 64f
2:00 1ft 4s 4
mph
1020.5mb 62f
1:00 1ft 4s 4
mph
1020.3mb 61f
12:00 1.3ft 4s 9 11 mph 1020.2mb 60f
11:00 1.6ft 4s 11 13 mph 1019.9mb 59f
10:00 1.6ft 4s 13 16 mph 1019.6mb 59f
9:00 1.6ft 4s 13 16 mph 1019.3mb 59f
8:00 2ft 4s 16 18 mph 1018.9mb 59f
7:00 1.6ft 4s 16 20 mph 1018.3mb 59f
6:00 1.6ft 4s 16 18 mph 1017.9mb 59f
5:00 0.7ft 3s  -  2 mph 1017.7mb 59f
4:00 0.7ft 3s 2 4 mph 1017.4mb 59f
3:00 0.3ft 2s 9
mph
1017.2mb 59f
2:00 0.3ft 2s 4 7 mph 1016.9mb 59f
1:00 0.7ft 2s 9
mph
1016.4mb 59f
12:00 0.7ft 2s 9 11 mph 1016.1mb 60f
Ter 05/24 11:00 0.7ft 2s 9 11 mph 1015.9mb 60f
10:00 0.3ft 2s 9 11 mph 1015.6mb 61f
9:00 0.3ft 6s 11 13 mph 1015.3mb 60f
8:00 0.3ft 2s 9 11 mph 1014.8mb 62f
7:00 0.7ft 4s 11
mph
1014.6mb 62f
6:00 0.3ft 5s 9 11 mph 1014.8mb 62f
5:00 0.3ft 6s 9
mph
1015.1mb 63f
4:00 0.3ft 3s 4
mph
1015.4mb 62f
3:00 0.3ft 3s 4
mph
1015.8mb 62f
2:00 0.3ft 3s 4
mph
1015.8mb 60f
1:00 0.7ft 3s  -  mph 1015.8mb 60f
12:00 0.7ft 2s 2
mph
1015.6mb 59f
11:00 0.3ft 3s 4
mph
1015.4mb 58f
10:00 0.7ft 3s 7
mph
1015mb 58f
9:00 0.7ft 2s 7
mph
1014.7mb 58f
8:00 0.7ft 3s 4 7 mph 1014.4mb 58f
7:00 0.3ft 6s 7
mph
1014mb 58f
6:00 0.3ft 2s 7
mph
1013.8mb 58f
5:00 0.3ft 2s 7
mph
1013.7mb 58f
4:00 0.3ft 2s 4
mph
1013.7mb 58f
3:00 0.3ft 2s 4 7 mph 1013.6mb 58f
2:00 0.3ft 2s 7
mph
1013.5mb 58f
1:00 0.7ft 2s 9
mph
1013.6mb 58f
12:00 0.7ft 2s 11 13 mph 1013.5mb 58f
Seg 05/23 11:00 0.7ft 2s 9 11 mph 1013.3mb 59f
10:00 0.7ft 2s 9 11 mph 1013.1mb 59f
9:00 0.7ft 2s 9 11 mph 1012.9mb 59f
8:00 0.7ft 2s 9 11 mph 1012.7mb 59f
7:00 0.7ft 4s 9 11 mph 1012.6mb 60f
6:00 0.3ft 6s 9
mph
1012.8mb 60f
5:00 0.3ft 5s 9 11 mph 1013.1mb 60f
4:00 0.7ft 3s 9 11 mph 1013.4mb 60f
3:00 0.7ft 2s 9
mph
1013.5mb 60f
2:00 0.7ft 2s 9 11 mph 1013.4mb 60f
1:00 0.7ft 6s 9 11 mph 1013.5mb 60f
12:00 0.7ft 3s 9 11 mph 1013.4mb 59f
11:00 1ft 2s 9 11 mph 1013.1mb 59f
10:00 1ft 3s 9
mph
1013.1mb 58f
9:00 1ft 3s 9 11 mph 1012.8mb 58f
8:00 1ft 3s 9 13 mph 1012.6mb 58f
7:00 1.3ft 4s 4 7 mph 1012.2mb 59f
6:00 1.6ft 3s 11 13 mph 1011.7mb 59f
5:00 0.7ft 2s 13 18 mph 1011.5mb 59f
4:00 0.3ft 2s 4 9 mph 1011.5mb 59f
3:00 0.7ft 2s 7 9 mph 1011.5mb 59f
2:00 0.7ft 2s 4 7 mph 1011.3mb 59f
1:00 0.3ft 2s 4 7 mph 1011.3mb 59f
12:00 0.3ft 3s 4
mph
1011.4mb 59f
Dom 05/22 11:00 0.3ft 4s 4 7 mph 1011.4mb 59f
10:00 0.3ft 3s 7
mph
1011.1mb 59f
9:00 0.7ft 6s 7
mph
1010.9mb 59f
8:00 0.7ft 3s 7 9 mph 1010.9mb 60f
7:00 0.7ft 2s 7 9 mph 1010.8mb 60f
6:00 0.7ft 2s 9
mph
1010.8mb 60f
5:00 0.7ft 2s 9
mph
1011.1mb 60f
4:00 0.3ft 2s 9
mph
1011.4mb 60f
3:00 0.3ft 2s 7
mph
1011.9mb 59f
2:00 0.7ft 2s 9
mph
1011.8mb 59f
1:00 0.7ft 3s 9 11 mph 1011.6mb 58f
12:00 0.7ft 3s 9 11 mph 1011.5mb 58f
11:00 0.7ft 3s 4 7 mph 1011.6mb 58f
10:00 0.7ft 3s 4 7 mph 1011.6mb 57f
9:00 1ft 3s 7 9 mph 1011.5mb 58f
8:00 1.3ft 3s 2
mph
1011.3mb 57f
7:00 1.3ft 3s 11 13 mph 1011mb 58f
6:00 1ft 3s 11 13 mph 1010.7mb 57f
5:00 1.3ft 3s 9
mph
1010.3mb 58f
4:00 1.6ft 3s 11
mph
1009.9mb 58f
3:00 1.6ft 3s 11 13 mph 1009.9mb 58f
2:00 2ft 5s 13 18 mph 1009.8mb 58f
1:00 2.5ft 4s 13 16 mph 1009.5mb 58f